Location: Aulnoy
(48.8410°N, 3.0967°E)
Time: 07:02:16
(UTC+00:00)

SJ-6B - Pass Details

Date: 09 February 2023
Orbit: 502 x 570 km, 97.5° (Epoch: 24 March)

Event Time Altitude Azimuth Distance (km) Brightness Sun altitude
Exits shadow 18:32:25 30° 74° (ENE) 1,022 3.6 -15.9°
Maximum altitude 18:32:39 30° 67° (ENE) 1,018 3.6 -16.0°
Drops below altitude 10° 18:36:13 10° 6° (N) 1,876 5.4 -16.5°
Sets 18:38:34 0° 356° (N) 2,787 6.4 -16.9°
